GFSNE_sfc_rhum_177.txt.gz
RH
76 77 79 80 81 77 80 84 94 96 83 74 68 67 63 65 68 74 82 74 76 76 80 82 81 82 84 85 86 87 89 91 93 94 97 97 91 86
76 78 79 81 80 82 79 78 81 91 97 76 68 66 60 56 64 73 90 74 78 75 74 78 80 81 83 83 84 85 87 89 90 90 94 96 98 93
78 80 79 78 82 84 80 79 83 87 92 81 69 65 65 68 71 73 76 80 81 71 73 72 74 77 80 82 83 84 85 86 89 91 93 96 98 97
80 82 86 66 84 83 81 80 85 83 85 89 76 72 71 68 74 77 72 70 74 63 77 75 72 73 78 80 82 84 84 84 86 87 91 93 95 96
89 89 94 94 94 97 93 84 82 74 83 81 78 73 72 73 78 74 78 82 73 63 75 71 84 74 74 78 81 83 83 85 85 86 88 92 94 94
86 84 85 92 95 95 96 98 94 90 88 87 79 78 76 75 83 87 85 85 91 58 70 72 78 79 75 74 75 79 82 84 86 85 87 90 93 94
88 79 77 71 72 77 92 96 95 97 94 89 87 83 85 85 91 94 90 89 92 80 89 93 84 92 88 75 76 72 78 83 83 88 87 87 90 94
97 94 89 81 81 77 61 66 78 96 97 99 100 99 97 99 87 93 94 92 96 85 95 96 83 89 93 82 67 70 72 79 82 84 90 91 87 92
91 95 92 89 86 89 72 76 79 74 92 96 100 99 99 98 99 90 93 93 99 93 92 98 89 93 97 84 65 70 69 75 78 84 83 88 94 90
79 79 77 78 78 79 81 87 90 93 94 97 95 96 96 95 97 99 97 92 97 97 86 100 97 93 96 98 66 71 70 73 77 79 84 84 86 90
73 72 69 73 64 67 71 70 83 90 79 71 64 62 64 63 68 94 95 94 96 98 87 100 96 93 99 97 89 70 77 70 75 78 81 86 81 84
83 78 64 71 63 63 73 83 96 93 97 92 94 87 86 87 79 95 96 96 99 97 91 98 100 96 97 97 94 85 89 72 72 75 79 82 86 91
94 93 89 61 62 62 66 94 87 93 96 96 96 96 96 91 93 88 95 98 98 99 89 96 100 97 100 98 95 82 86 87 85 84 77 80 83 93
97 98 89 61 60 61 77 62 68 94 96 96 96 96 98 94 92 91 85 93 97 90 93 94 97 97 100 99 96 78 79 91 82 86 85 76 75 82
92 75 62 60 59 78 62 64 95 96 98 98 99 98 99 96 86 89 79 79 90 93 95 88 96 95 98 98 98 91 84 90 76 82 82 83 86 89
85 89 92 89 84 91 94 90 97 96 96 98 98 98 94 93 90 97 94 83 96 88 83 81 76 91 95 95 98 95 87 91 78 80 80 79 80 80
93 98 98 98 97 96 96 97 96 94 90 98 97 96 94 97 91 96 88 93 96 94 85 82 65 69 83 93 93 84 90 84 80 80 79 80 78 83
95 98 97 98 96 95 94 94 96 93 95 95 95 94 94 94 84 74 67 78 82 67 65 81 62 62 58 56 52 73 88 76 74 73 76 83 82 79
98 98 97 96 94 94 91 94 97 96 91 94 96 96 87 81 76 74 74 69 66 56 52 51 56 62 75 84 76 53 72 68 72 74 81 84 83 78
95 94 95 94 89 84 86 93 96 94 94 92 96 96 96 88 94 79 76 92 71 56 55 51 55 61 75 95 92 74 54 72 73 79 87 82 68 55
86 84 92 93 92 92 97 96 98 95 96 98 98 98 99 97 96 95 91 92 82 61 63 62 56 66 50 61 84 80 67 55 54 64 69 90 82 74
88 84 86 90 96 95 97 97 99 96 96 98 99 99 98 98 97 96 95 95 76 72 62 57 51 55 59 57 70 82 68 66 55 55 57 66 76 94
93 90 93 93 95 95 96 97 97 99 96 98 98 97 100 98 97 96 96 94 79 77 64 67 63 62 62 54 68 82 68 72 65 66 66 55 56 58

GFSNE_sfc_rhum_180.txt.gz
RH
84 86 88 89 89 90 88 91 96 98 85 85 82 66 62 66 70 70 82 69 67 79 73 74 78 80 80 81 83 83 84 86 88 89 92 92 94 94
82 79 81 86 86 84 86 86 86 94 97 86 76 70 65 56 65 70 76 88 72 73 80 76 72 76 77 80 81 83 83 83 85 87 90 88 90 93
78 77 74 79 82 78 79 84 85 88 96 85 76 68 66 68 68 71 74 75 84 64 75 82 71 72 75 76 79 79 82 82 81 84 88 91 91 91
84 81 83 62 81 76 73 77 83 82 88 86 77 72 69 66 72 73 68 63 71 57 77 75 78 71 73 75 74 79 82 81 82 84 85 88 92 92
93 93 95 92 94 97 87 78 81 69 84 78 75 72 70 71 74 71 69 79 64 56 73 72 80 73 68 69 73 74 79 80 80 82 85 85 88 91
86 89 90 91 93 96 93 95 94 87 88 88 78 78 76 76 78 86 83 83 88 49 63 72 78 76 72 67 70 70 76 79 80 77 83 87 88 88
87 77 82 73 72 84 89 96 94 97 96 95 90 83 85 85 93 94 90 90 96 78 84 86 83 91 85 73 66 68 73 76 77 80 77 84 87 88
94 96 94 84 79 65 68 74 88 95 97 98 100 100 98 100 94 94 96 94 98 84 94 96 80 91 93 82 66 68 69 75 79 78 75 78 85 89
93 96 95 95 87 91 74 75 78 78 96 98 98 99 99 99 100 98 97 100 99 96 91 98 89 93 94 87 64 73 70 72 78 80 85 74 79 83
88 83 82 82 84 85 82 89 93 96 97 98 97 96 98 96 98 99 99 97 97 97 96 100 98 94 96 98 66 72 73 71 75 77 81 82 78 81
72 70 70 74 64 65 67 70 87 93 79 65 61 58 67 60 71 95 97 100 98 98 95 99 94 99 99 98 89 69 74 69 73 75 76 79 79 81
84 77 65 72 63 66 73 82 94 97 98 93 93 88 84 85 81 96 97 100 100 95 87 94 99 100 98 97 93 85 87 70 73 75 74 73 80 92
91 94 91 64 62 62 74 92 91 98 97 97 96 95 96 90 91 88 97 100 98 99 87 96 99 97 100 98 96 83 86 89 86 86 77 75 74 81
95 96 91 64 63 61 82 64 72 94 96 96 96 96 99 96 93 91 89 92 98 92 92 94 97 98 100 99 97 81 80 89 82 88 87 78 76 81
94 81 70 65 62 82 64 70 95 96 99 98 100 98 100 97 93 88 82 86 88 92 92 91 97 98 99 98 99 93 92 89 76 83 84 85 88 89
77 86 90 91 90 94 96 94 96 96 97 99 99 100 98 96 96 98 95 92 95 87 82 82 84 94 97 96 98 97 89 93 81 81 84 82 82 86
96 97 99 98 97 96 97 97 97 95 95 99 99 98 98 98 97 97 94 96 95 95 80 74 68 71 85 91 95 92 87 84 82 81 86 86 80 82
95 98 98 98 94 96 96 97 97 95 97 97 97 98 98 98 94 82 79 94 92 76 72 67 68 70 63 65 56 82 79 80 77 76 80 90 83 79
98 98 98 96 97 94 92 93 96 97 96 96 97 97 94 83 85 79 79 75 70 60 60 59 66 74 86 92 77 60 73 73 75 80 78 88 83 79
96 94 94 91 86 86 89 94 97 96 97 97 96 97 98 96 95 84 82 96 75 61 62 59 63 71 83 94 96 80 56 74 77 85 86 83 68 54
91 86 92 90 92 92 98 99 99 96 99 100 99 99 100 98 97 97 96 94 84 64 67 66 60 72 55 64 89 89 67 56 58 71 84 85 82 73
92 84 89 92 94 94 98 100 100 100 99 100 100 100 100 99 98 96 98 96 86 78 64 58 55 58 62 60 77 89 70 67 58 58 58 64 81 95
91 85 92 92 93 95 94 96 97 100 98 99 99 99 100 98 98 98 97 97 88 86 68 72 66 63 60 55 74 84 70 71 69 71 67 59 59 63

GFSNE_sfc_rhum_186.txt.gz
RH
82 84 84 84 82 80 80 82 80 66 73 84 64 56 58 56 63 64 69 74 64 75 69 76 71 72 69 74 75 79 79 79 80 79 82 84 84 85
80 79 78 76 78 80 80 78 80 83 78 79 66 61 58 50 56 60 67 74 57 74 67 75 69 71 67 66 73 77 77 78 77 80 82 84 85 85
73 70 71 70 75 76 76 76 76 80 76 73 58 59 57 60 58 57 60 68 58 68 69 71 67 72 68 66 64 71 78 79 78 78 78 82 84 86
76 75 74 54 72 69 74 73 67 68 67 58 61 64 61 61 60 57 57 59 51 55 65 73 73 72 68 67 66 65 71 80 78 78 76 80 84 84
91 90 90 86 90 92 86 75 73 64 72 62 67 63 62 63 62 58 56 69 50 49 58 66 77 73 68 67 66 66 65 77 77 76 79 77 79 83
78 82 80 82 90 92 94 97 93 80 78 78 70 69 66 63 67 72 67 72 76 39 51 59 69 74 69 71 65 66 67 67 80 78 75 77 76 80
85 78 80 72 73 78 86 93 95 93 87 80 80 75 80 76 88 88 76 81 89 68 58 65 58 74 71 73 64 66 66 66 68 78 78 77 73 78
96 96 94 76 75 70 75 81 90 96 96 89 95 98 97 98 86 90 93 87 87 81 82 78 65 67 80 75 65 66 67 67 67 68 73 75 73 74
95 96 98 96 89 92 78 82 80 82 94 95 96 99 96 96 98 91 95 96 95 91 79 87 86 83 83 73 63 66 68 68 68 68 71 76 75 75
82 83 82 80 83 87 88 95 98 98 97 96 94 95 94 93 94 93 96 93 90 91 91 88 89 88 90 88 66 67 72 69 70 70 70 72 74 74
69 72 72 76 68 68 70 77 88 92 75 63 62 65 64 64 74 78 93 90 87 90 89 94 89 94 93 93 88 68 74 70 72 75 74 76 81 77
75 78 70 77 66 68 77 80 94 97 90 84 87 80 79 76 81 90 89 73 87 82 84 94 92 96 92 89 89 87 88 72 75 76 78 75 74 90
90 92 91 66 67 68 77 91 89 95 91 90 89 89 86 84 81 85 93 82 78 85 84 92 93 92 97 93 87 81 84 86 86 86 81 76 75 79
94 95 92 66 67 69 85 71 74 93 89 89 88 90 88 88 88 88 90 91 93 87 89 90 89 92 94 89 90 76 77 75 79 85 87 78 74 78
92 83 77 66 65 75 67 70 92 91 89 90 93 94 95 93 92 85 83 84 81 82 86 88 91 92 92 88 93 87 83 75 72 78 81 83 83 83
83 80 89 95 94 96 91 89 92 91 89 88 93 96 96 91 89 90 84 85 80 79 76 82 83 89 89 84 89 87 77 81 75 78 80 78 73 76
92 95 96 97 98 98 92 93 94 92 88 93 94 94 93 89 86 86 82 79 78 78 75 70 72 71 73 83 83 82 81 77 77 81 79 80 70 70
93 96 100 98 97 98 93 92 92 90 86 85 90 89 87 84 78 70 69 72 71 66 66 62 64 66 59 56 55 72 73 70 72 72 71 81 76 71
93 96 95 97 96 93 88 86 89 88 88 82 84 87 85 74 75 69 64 60 61 54 53 53 60 67 78 86 62 55 74 62 69 74 66 68 80 71
86 91 95 94 89 85 85 82 84 90 87 78 84 87 89 78 80 72 68 73 63 54 52 49 54 60 75 85 82 70 61 69 73 77 71 61 59 59
87 89 92 91 87 83 91 91 93 95 94 93 89 90 96 82 85 82 79 87 75 57 58 55 50 69 46 53 83 81 56 55 61 65 64 70 70 60
92 90 91 90 89 89 93 93 94 96 96 92 93 95 98 88 83 82 82 80 67 65 57 51 44 43 49 52 67 77 60 58 57 62 58 62 77 88
93 91 92 92 90 91 87 91 85 93 93 94 89 90 100 93 83 81 82 79 74 66 62 61 53 50 52 51 64 67 68 68 59 57 56 57 61 64

GFSNE_sfc_rhum_192.txt.gz
RH
47 45 37 36 35 33 31 31 31 30 27 39 25 30 26 29 50 44 48 60 64 65 65 64 64 64 64 64 63 64 65 75 74 77 79 80 80 80
38 44 40 35 35 33 35 32 31 31 32 27 24 29 29 19 35 40 49 60 61 61 66 65 64 64 64 63 63 63 64 65 73 77 79 80 81 81
45 43 39 38 32 33 32 30 29 30 31 28 24 32 34 32 30 34 38 41 32 57 59 65 64 64 63 62 62 63 63 64 64 71 72 78 80 82
44 41 42 31 39 36 28 30 27 31 26 31 29 30 32 36 35 35 32 28 24 45 49 65 63 63 61 60 61 62 62 62 63 64 71 75 76 80
54 53 60 54 61 71 42 32 31 26 30 26 29 29 30 33 32 33 35 41 21 27 32 51 59 60 59 58 61 62 62 62 62 63 68 70 73 75
54 57 57 62 81 83 91 100 67 38 38 35 32 33 31 38 38 37 35 41 39 25 35 33 51 51 53 56 60 62 62 62 62 63 64 73 72 73
47 41 44 46 59 62 60 75 87 63 48 43 42 40 42 38 64 64 42 46 70 51 43 34 34 43 46 47 54 62 63 63 63 63 64 69 70 70
100 100 71 76 69 72 72 73 86 95 65 55 69 80 86 84 59 67 69 56 53 61 77 59 44 48 56 54 62 63 63 64 64 64 64 64 64 65
100 100 100 99 88 87 78 70 71 74 81 98 90 90 87 80 84 77 77 79 80 79 67 72 72 76 73 55 61 63 63 63 64 64 63 63 64 66
70 70 67 70 80 84 80 85 86 87 89 89 87 87 86 89 90 90 91 74 82 78 77 79 79 83 81 78 61 62 62 62 63 63 63 63 63 64
57 56 54 54 75 63 51 53 64 79 67 65 62 59 60 62 68 64 78 76 81 84 79 83 80 83 86 87 81 61 61 61 61 61 62 62 62 61
57 58 67 55 69 64 44 51 83 87 84 80 77 70 68 72 71 77 61 58 73 79 81 83 79 81 82 87 82 78 77 59 59 59 60 60 60 68
75 80 75 72 68 65 57 77 82 82 76 77 77 78 76 74 68 72 76 71 72 80 78 76 77 77 76 78 72 69 70 69 72 71 59 58 58 62
85 88 88 70 69 67 74 74 73 73 79 79 77 77 77 77 78 77 76 75 71 75 72 74 74 74 76 75 71 58 60 60 61 63 67 61 54 55
90 85 73 70 70 74 72 69 70 83 85 84 83 82 81 77 77 75 75 71 73 74 75 68 72 72 74 75 74 68 66 57 53 55 56 59 62 62
81 81 77 75 71 76 76 76 81 84 83 83 82 81 78 77 77 76 76 74 70 68 65 65 65 69 73 69 67 68 60 65 53 53 56 57 55 56
88 89 89 85 82 82 82 78 81 81 81 81 79 77 75 71 70 64 62 60 65 57 53 47 48 45 54 66 68 60 62 60 54 57 55 56 53 52
85 92 92 88 82 81 82 80 77 71 69 66 68 62 61 60 54 45 43 49 50 41 40 35 37 38 35 43 45 52 51 50 48 49 49 57 54 50
83 87 90 87 79 67 66 66 70 65 62 56 57 56 52 46 49 43 42 39 41 30 27 26 32 36 48 61 44 46 56 47 49 52 45 46 54 47
70 78 81 76 64 56 54 55 56 60 58 50 55 60 64 56 55 47 42 55 41 32 28 23 26 32 46 65 67 57 44 58 56 57 51 42 40 42
70 66 72 65 62 54 68 70 77 76 73 73 67 67 74 60 61 55 53 58 56 35 33 29 27 49 29 34 66 57 44 36 44 49 46 51 47 41
76 63 62 63 65 62 79 88 80 78 76 73 76 75 76 66 62 60 61 62 44 41 33 27 26 27 31 33 41 57 45 45 41 37 40 48 62 76
84 64 67 72 70 71 62 76 69 78 68 69 67 68 76 71 58 59 61 53 46 45 39 36 33 29 33 32 41 48 52 50 39 37 42 37 46 53

GFSNE_sfc_rhum_195.txt.gz
RH
58 55 46 38 36 32 30 34 41 39 39 41 34 33 27 34 40 43 50 62 62 65 64 64 64 63 63 63 63 64 64 64 64 68 71 77 78 77
55 57 51 39 37 37 37 34 35 37 38 34 26 32 26 19 33 43 50 55 59 60 65 64 63 63 61 62 63 63 63 64 64 65 67 76 79 78
55 55 45 46 38 36 36 34 32 31 37 30 29 36 38 33 34 36 43 41 48 55 61 63 62 61 60 61 62 62 63 63 64 64 68 70 76 78
59 56 54 35 44 41 35 40 33 33 35 36 33 36 35 37 37 37 28 21 26 46 47 59 60 60 58 59 61 61 62 62 62 63 68 71 74 76
64 61 60 54 59 70 49 38 35 28 34 33 34 32 34 34 36 36 36 42 18 38 40 60 57 55 55 55 60 61 62 62 62 63 63 64 65 71
62 63 56 56 75 82 89 100 67 40 36 36 35 36 36 42 38 38 40 44 41 26 31 33 49 55 49 54 58 61 62 62 62 62 62 63 64 63
63 54 61 62 69 67 63 69 80 61 49 44 43 42 41 41 62 63 45 47 74 58 46 38 37 47 48 50 55 60 61 62 62 62 62 62 63 66
92 97 67 68 68 76 77 78 91 97 60 53 69 86 88 84 57 68 69 55 72 69 78 60 46 50 58 59 59 60 60 61 61 61 61 62 63 65
100 99 100 97 90 90 80 79 81 79 93 100 99 96 86 82 84 74 77 77 80 85 68 82 73 77 73 58 60 59 60 60 60 60 60 61 61 62
73 73 72 74 78 79 75 80 84 87 95 98 96 90 86 82 84 86 84 77 84 86 78 78 83 82 82 80 65 58 58 60 59 59 59 59 59 61
71 74 63 60 75 66 57 55 66 79 69 73 74 65 62 56 65 76 83 75 76 81 84 82 81 83 81 85 84 61 59 58 58 57 58 58 58 60
88 78 71 66 77 73 53 56 88 86 83 76 75 67 66 63 69 80 63 60 72 84 85 86 79 80 81 90 91 80 85 59 58 56 57 57 56 70
92 91 82 82 77 69 66 80 85 86 80 84 80 80 78 76 71 71 77 72 70 79 81 79 78 77 76 78 73 70 74 75 75 74 57 57 56 61
94 96 93 81 67 67 77 79 77 80 78 78 78 80 79 78 77 75 75 74 74 80 75 73 77 74 76 76 72 59 62 64 63 69 72 60 55 53
95 92 86 75 69 73 79 77 77 82 84 83 82 82 81 79 76 77 75 72 74 74 74 69 74 73 76 77 75 68 66 58 56 57 58 62 66 69
92 90 85 81 77 78 84 81 80 89 87 84 83 86 82 79 78 72 73 71 68 80 72 70 70 73 76 70 68 71 60 66 54 54 56 63 60 62
92 91 91 89 87 88 83 81 83 82 81 86 82 81 78 75 73 67 64 61 65 60 58 63 53 47 54 68 70 62 62 60 55 58 56 58 55 55
90 92 92 89 88 86 84 79 79 75 72 71 71 67 66 65 61 54 52 54 54 46 41 36 36 38 36 48 54 55 53 54 50 49 49 59 56 53
89 88 88 88 84 77 75 71 76 68 66 60 62 61 57 52 53 46 44 42 40 32 27 26 30 35 45 61 52 47 56 50 52 54 47 48 58 50
79 80 83 81 73 65 64 62 62 64 62 54 59 61 63 55 54 47 44 53 43 33 28 23 25 30 43 63 64 56 46 55 56 58 53 45 42 43
74 71 77 73 71 63 72 74 81 81 78 75 68 69 77 60 62 54 52 64 57 35 32 29 28 49 31 32 65 57 44 41 42 49 48 51 52 47
76 71 70 72 74 72 82 87 85 84 78 73 77 78 78 67 63 60 61 63 44 42 34 27 26 27 30 33 40 54 44 45 42 37 39 43 59 74
82 71 74 77 77 77 69 78 74 83 74 74 71 71 80 73 60 60 60 55 47 43 37 35 31 30 31 33 43 45 53 54 40 39 43 39 43 49

GFSNE_sfc_rhum_198.txt.gz
RH
69 67 69 60 59 55 54 50 61 68 65 59 57 48 60 66 59 69 64 64 64 65 65 64 64 63 62 62 63 63 63 63 63 64 65 65 71 70
70 69 63 63 58 56 57 56 59 69 73 53 54 49 42 32 48 66 65 63 61 64 65 64 62 62 61 62 62 62 62 63 63 64 66 69 74 71
66 70 64 61 65 61 61 58 56 60 58 57 49 55 52 46 52 69 65 64 62 64 63 63 60 60 60 61 61 61 61 62 62 63 64 64 64 67
71 72 75 52 64 64 65 59 61 59 49 54 57 61 56 58 60 58 51 38 48 52 58 59 57 58 57 59 60 60 61 61 62 62 64 65 65 64
80 83 80 72 76 86 67 66 64 48 52 53 60 64 62 64 61 58 57 61 27 49 57 58 57 54 56 59 59 60 60 60 61 61 62 63 64 64
86 78 72 74 86 90 89 92 68 66 60 62 62 65 68 58 67 72 70 72 65 33 36 51 61 54 59 58 58 60 60 60 60 60 61 62 63 66
85 68 74 80 80 82 88 90 91 86 82 64 76 72 77 77 94 90 79 92 96 86 73 60 71 76 70 63 60 59 59 59 59 60 60 61 62 65
95 93 85 81 80 72 86 92 99 90 80 87 94 94 97 95 92 96 95 95 95 95 96 94 71 85 90 83 58 57 58 58 58 59 59 60 61 63
94 96 95 94 91 91 86 84 86 93 98 95 94 95 96 96 95 92 94 95 99 98 96 98 95 96 94 78 58 56 57 58 58 57 58 58 59 60
90 88 86 92 91 90 90 93 94 95 95 93 93 95 92 93 94 95 94 94 95 98 96 98 96 96 96 96 67 58 57 58 57 56 57 57 57 59
81 78 82 85 82 79 76 78 86 90 78 80 81 78 74 76 84 95 99 98 98 99 97 97 98 95 97 97 95 65 58 57 57 56 56 57 57 58
89 84 81 86 85 74 66 79 94 96 90 85 84 70 72 72 74 94 96 96 95 100 96 98 95 94 96 98 96 95 95 59 56 56 56 56 57 93
92 96 95 90 91 77 69 86 89 88 86 88 91 96 95 94 96 94 94 98 96 99 89 97 96 94 95 95 95 95 94 92 93 87 60 56 58 63
93 94 95 93 92 89 83 82 80 84 89 92 93 95 95 97 95 96 93 93 95 94 92 90 98 95 96 97 96 93 94 93 94 94 94 64 63 56
91 92 94 94 91 87 84 86 85 90 92 92 93 95 96 95 94 93 92 91 91 91 93 87 95 95 96 98 97 95 95 92 94 94 92 85 90 94
96 95 96 95 87 92 93 90 90 90 90 92 94 96 95 96 97 96 97 96 98 97 90 90 91 92 96 97 94 95 95 91 94 93 86 88 86 87
97 96 97 96 94 96 96 93 90 91 91 93 94 95 94 95 96 95 95 94 95 97 97 90 81 81 86 89 92 95 92 92 94 91 79 92 82 85
95 96 96 94 92 94 94 93 90 90 89 92 92 89 88 89 87 81 82 91 93 88 81 82 78 73 66 72 67 91 91 92 90 79 77 85 80 78
94 96 94 93 91 90 89 83 89 85 82 84 85 83 80 75 76 69 70 68 71 63 56 56 57 69 76 92 80 52 89 83 85 90 77 77 82 66
94 91 89 89 88 87 80 77 80 82 79 78 81 82 86 79 80 70 65 87 74 56 47 34 37 54 80 90 88 83 48 85 88 91 87 77 64 48
92 91 88 89 86 78 82 80 82 84 81 83 82 86 89 90 84 89 83 84 81 57 48 45 45 52 44 60 89 92 75 42 50 70 71 84 70 64
96 95 96 94 83 82 83 83 83 84 83 82 86 87 90 92 88 87 85 82 69 71 57 42 36 37 48 47 72 78 76 79 50 39 40 50 89 94
96 96 96 90 81 79 78 81 79 84 81 81 84 86 89 90 92 89 89 77 66 60 61 57 46 42 42 40 59 78 71 79 71 67 76 46 48 51

GFSNE_sfc_rhum_201.txt.gz
RH
66 61 58 67 64 66 57 54 59 76 74 62 70 71 72 76 75 72 72 64 65 66 64 63 64 64 64 64 64 63 63 63 62 62 62 61 66 60
69 70 68 68 64 65 61 56 65 71 76 52 62 66 62 60 72 71 68 65 65 66 64 63 63 63 64 63 63 63 62 62 62 63 64 63 61 61
75 67 64 62 68 66 65 65 66 72 70 65 60 62 53 60 76 74 69 71 71 65 63 61 61 62 62 63 63 63 62 62 62 63 65 65 64 63
79 73 73 57 70 71 73 64 63 71 59 56 51 60 51 64 78 76 54 45 68 59 61 61 60 60 61 62 63 62 61 61 61 62 64 64 64 62
88 81 82 80 86 93 83 72 71 52 56 57 66 73 70 69 75 76 68 62 45 58 60 60 60 60 61 62 62 61 60 60 60 61 62 62 63 65
89 84 84 85 90 90 89 92 78 66 64 62 62 62 64 69 69 66 71 70 61 43 54 62 60 60 62 62 61 59 59 59 60 60 61 61 62 67
98 97 97 94 90 85 76 86 83 74 70 67 70 67 81 73 74 90 87 96 96 87 73 74 79 80 77 64 60 58 58 58 59 59 60 60 61 66
100 100 96 92 89 91 88 86 85 79 72 70 77 77 90 91 94 90 94 98 98 96 97 94 80 88 87 85 58 56 57 57 58 58 59 59 59 62
100 100 100 100 95 95 93 93 94 87 80 77 80 84 94 91 93 93 96 98 99 98 95 98 98 98 95 74 60 56 56 57 56 57 57 58 58 58
98 98 97 96 94 94 92 95 96 96 95 94 84 94 93 94 88 93 94 96 96 97 98 99 98 97 98 98 66 59 56 56 56 56 57 56 58 57
98 98 98 95 92 86 86 88 94 97 84 82 82 81 81 82 86 89 98 92 100 100 98 97 100 96 98 98 97 65 59 55 55 55 56 56 58 57
98 98 97 92 90 86 82 85 96 98 96 92 88 82 82 82 83 92 90 93 98 100 98 96 98 97 100 99 98 97 96 66 52 52 54 55 58 93
96 97 97 94 93 91 86 90 90 94 92 90 90 89 90 94 95 94 97 96 97 100 94 96 98 98 98 97 97 96 96 94 96 90 60 56 56 65
96 97 96 93 94 92 93 90 91 92 91 90 91 90 90 95 96 94 94 95 96 92 91 94 97 96 98 99 96 94 95 96 95 95 95 64 62 65
97 96 95 95 92 94 91 91 92 92 91 93 94 95 94 95 94 93 93 91 91 92 93 92 94 97 97 100 99 96 95 93 97 94 90 87 95 97
98 98 97 94 92 96 96 94 94 92 91 92 94 95 97 95 94 96 97 97 98 99 93 90 91 92 97 98 96 95 97 90 95 93 93 94 85 88
98 97 98 97 97 97 97 95 94 95 96 95 96 96 95 93 95 94 95 97 98 100 100 97 86 87 94 92 94 97 95 93 96 92 88 96 88 86
97 96 96 96 95 95 94 95 94 92 92 94 94 91 90 88 89 88 85 91 94 96 98 95 94 93 80 79 75 94 96 93 95 86 85 93 91 85
95 96 95 95 95 95 91 90 94 93 92 93 91 89 84 80 88 81 79 75 80 79 69 81 79 77 82 94 88 57 86 91 90 91 86 90 90 72
96 94 95 94 94 93 92 88 93 96 93 90 94 89 87 85 88 82 79 87 78 64 52 41 44 64 77 87 88 86 53 90 90 91 90 85 71 54
95 95 94 93 94 92 94 91 94 95 88 90 91 89 90 85 86 81 78 76 82 67 52 52 50 64 49 65 85 86 86 52 59 73 80 94 86 84
95 95 94 94 95 94 96 96 95 94 91 89 89 89 90 86 83 85 83 79 75 76 63 45 36 42 59 58 80 88 80 87 57 50 40 52 86 91
96 96 96 95 96 96 95 95 90 91 87 84 86 88 89 90 80 85 84 76 66 70 60 50 46 49 52 51 67 76 80 82 79 75 83 47 49 54

GFSNE_sfc_rhum_204.txt.gz
RH
70 71 69 69 75 69 59 57 62 72 63 63 81 81 84 81 77 75 75 66 67 65 64 64 64 64 64 63 62 62 63 63 63 63 63 61 60 58
80 73 71 69 78 74 65 58 67 66 71 62 75 84 81 73 74 76 72 68 68 65 64 65 64 64 63 63 63 62 63 63 63 64 64 63 59 60
80 73 69 65 79 74 68 70 72 70 69 77 76 78 84 82 76 77 73 78 75 65 64 64 63 63 63 63 63 63 62 64 63 65 65 64 62 62
95 93 94 87 90 88 78 74 70 74 80 83 74 71 65 79 78 80 63 59 75 62 63 63 64 62 62 63 62 62 62 62 62 63 63 64 64 62
94 92 92 90 93 93 78 77 84 70 82 84 71 59 70 84 82 71 64 74 60 62 64 64 64 63 62 61 61 61 61 60 61 61 62 62 63 62
94 92 90 89 86 83 92 97 86 80 81 76 63 60 62 80 81 78 70 71 65 54 60 65 64 64 64 62 60 60 61 60 60 60 60 60 62 63
94 92 90 86 86 88 92 96 88 82 76 71 63 61 65 79 86 85 72 79 91 82 77 78 79 82 78 63 59 60 59 58 58 58 59 59 60 64
100 100 91 89 92 93 92 89 84 84 76 72 74 74 78 84 79 85 85 78 86 95 97 92 81 88 88 85 58 59 58 56 56 56 57 58 59 60
100 100 100 100 100 100 94 88 84 74 71 80 82 80 84 83 81 85 84 84 97 98 94 98 98 98 95 74 60 58 57 56 54 55 56 56 59 59
96 96 97 99 98 98 96 96 96 95 92 95 84 83 87 85 78 86 89 94 94 97 98 98 99 98 98 97 63 60 56 55 54 53 55 55 60 57
98 98 98 98 96 91 98 93 95 98 85 85 84 81 79 80 84 86 92 90 100 98 98 98 99 98 99 98 97 67 62 56 53 52 54 53 58 62
99 98 98 98 98 98 98 90 96 98 97 97 96 90 86 84 82 80 85 85 98 100 97 96 98 97 99 99 98 98 98 69 51 53 53 50 56 95
98 98 98 98 100 100 98 94 90 95 95 96 96 97 96 96 94 94 94 87 96 98 95 95 98 98 98 99 98 99 97 96 97 86 57 51 55 69
98 95 96 99 100 100 98 93 92 94 95 95 94 96 97 97 97 96 95 95 94 92 91 95 96 95 97 99 98 97 96 97 96 95 95 64 60 64
97 95 95 98 99 99 97 94 94 95 95 96 95 95 95 96 96 94 94 92 91 92 93 93 94 96 97 98 98 97 95 96 97 92 93 93 96 97
99 98 98 98 97 95 96 96 96 94 94 94 95 95 96 96 95 93 95 93 93 96 89 91 91 92 98 98 96 96 98 92 96 94 95 94 88 95
98 98 98 98 98 97 97 96 96 95 95 96 94 95 95 95 94 92 87 89 94 94 97 92 84 84 91 92 95 97 97 96 97 93 88 95 89 89
97 97 97 97 95 95 95 95 95 92 92 91 92 90 91 92 90 84 82 84 94 88 92 92 88 90 79 81 75 95 97 94 96 91 87 94 93 87
97 96 96 96 95 94 92 91 94 94 91 90 89 90 90 87 85 84 87 84 85 84 84 87 87 88 90 94 90 67 86 90 92 92 87 90 93 82
97 95 95 96 95 95 92 92 95 96 95 93 91 92 93 88 88 86 85 89 83 75 72 82 80 69 73 85 93 90 56 92 91 92 89 88 80 61
97 97 97 95 96 95 92 94 95 95 95 96 94 93 94 87 89 87 84 84 82 68 60 58 52 69 62 64 83 85 90 60 63 73 80 95 91 89
96 94 95 95 96 95 96 96 96 96 96 96 96 96 94 90 90 89 87 86 75 69 59 49 41 46 59 58 75 88 81 86 59 50 47 59 87 92
97 97 96 96 96 96 95 96 95 96 95 95 95 96 93 93 87 85 84 77 68 67 56 51 48 53 57 58 71 82 78 84 84 77 84 44 46 52

GFSNE_sfc_rhum_207.txt.gz
RH
64 66 69 75 73 72 64 57 63 72 61 72 93 81 84 81 79 82 82 68 68 67 66 65 64 64 62 62 61 61 62 63 62 61 59 59 59 59
81 77 72 80 78 74 69 59 69 65 68 70 84 86 81 74 77 77 78 69 68 67 67 65 65 64 63 62 62 62 63 63 63 62 61 60 61 61
89 84 85 88 89 86 76 68 76 77 74 86 90 88 87 85 81 77 74 82 77 67 67 66 65 64 63 63 62 63 63 63 63 63 62 62 61 62
92 88 88 84 86 86 86 89 91 94 94 94 94 94 90 84 77 78 70 64 72 65 66 65 64 64 64 63 62 63 62 62 63 63 63 63 62 63
88 86 88 85 91 94 94 94 94 90 91 88 94 92 95 90 83 76 72 77 62 64 66 66 65 63 63 62 62 62 60 60 61 62 62 64 63 62
87 83 87 87 94 96 95 99 94 92 90 88 95 95 94 88 79 78 76 77 71 59 63 69 67 65 65 63 62 60 59 58 59 60 61 62 64 62
95 94 94 91 90 90 93 95 93 88 92 92 92 91 93 94 90 82 70 80 88 77 74 76 77 80 76 64 63 59 57 57 57 58 60 60 61 62
100 100 96 93 92 92 90 88 87 89 89 88 93 93 93 91 86 90 84 79 78 89 92 89 78 82 91 80 61 60 57 55 55 57 57 59 59 59
100 100 100 100 98 100 97 92 88 82 84 92 94 93 92 87 90 91 86 79 94 98 84 95 98 96 96 72 62 60 58 56 54 55 56 57 58 57
98 97 97 98 99 99 99 100 100 100 98 100 98 93 88 86 86 87 86 90 95 96 97 97 99 97 98 98 68 61 59 56 54 54 56 54 59 54
98 96 94 98 98 96 96 97 96 96 89 86 87 84 82 79 83 84 89 84 95 94 97 97 99 100 98 98 96 67 62 59 55 53 54 52 58 63
99 99 96 96 97 94 94 93 97 98 98 97 95 88 85 84 79 73 79 83 96 95 93 97 98 97 99 98 98 97 98 69 54 55 52 50 54 96
99 99 99 98 95 96 91 95 93 96 97 96 97 97 95 94 86 89 86 81 86 96 94 95 97 97 97 99 98 98 98 95 96 86 60 54 53 71
99 100 100 98 97 98 98 98 98 97 98 97 96 97 97 97 98 97 96 95 94 95 91 92 96 94 96 98 99 97 95 94 89 93 94 68 61 55
99 99 98 98 98 99 98 97 95 97 97 97 96 97 96 96 97 96 96 95 95 93 90 92 90 94 94 96 98 96 87 93 92 87 91 94 94 98
99 98 98 98 97 97 98 96 96 97 96 94 96 97 97 97 96 95 95 94 94 95 89 92 90 90 96 97 95 95 94 91 93 91 90 94 89 95
97 98 99 99 98 97 97 96 97 97 97 97 96 96 96 96 96 94 92 92 92 90 91 88 84 82 90 92 94 96 96 95 92 91 85 92 90 86
97 97 97 96 95 94 95 96 96 96 96 95 96 94 94 94 93 91 89 89 88 78 79 83 86 86 77 78 74 90 92 90 90 87 88 92 93 86
96 96 95 95 95 93 92 90 94 95 94 95 94 94 94 92 90 88 86 82 80 72 72 76 79 74 82 89 90 67 85 86 86 93 84 88 89 81
96 94 95 95 96 94 93 94 95 96 96 95 95 94 91 91 89 88 84 82 76 77 79 78 72 66 78 86 93 90 62 88 89 88 87 89 80 63
96 96 94 94 96 97 94 94 95 96 95 96 95 95 95 93 90 89 86 83 81 76 84 84 74 72 64 66 86 90 84 63 63 73 78 93 84 88
88 97 96 94 94 96 96 96 96 96 96 96 96 96 95 93 94 94 92 91 86 77 70 64 64 56 58 57 73 84 79 85 64 58 61 62 86 92
96 96 96 95 95 96 96 96 96 95 95 95 93 93 96 96 95 95 89 85 81 77 60 57 54 51 49 53 65 80 78 83 75 73 82 44 45 51